Time,TemperatureF,DewpointF,PressureIn,WindDirection,WindDirectionDegrees,WindSpeedMPH,WindSpeedGustMPH,Humidity,HourlyPrecipIn,Conditions,Clouds,dailyrainin,SoftwareType,DateUTC
2013-09-22 00:13:00,60.4,59.0,29.66,NNW,347,0.0,1.0,96,0.08,,,0.62,weatherlink.com 1.10,2013-09-22 04:13:00,
2013-09-22 00:28:00,60.3,59.0,29.66,WNW,284,0.0,3.0,96,0.08,,,0.64,weatherlink.com 1.10,2013-09-22 04:28:00,
2013-09-22 00:43:00,60.0,59.0,29.66,WNW,296,0.0,1.0,96,0.10,,,0.67,weatherlink.com 1.10,2013-09-22 04:43:00,
2013-09-22 00:58:00,59.8,59.0,29.66,WNW,284,0.0,2.0,96,0.10,,,0.70,weatherlink.com 1.10,2013-09-22 04:58:00,
2013-09-22 01:13:00,59.6,59.0,29.65,ESE,115,1.0,3.0,96,0.09,,,0.71,weatherlink.com 1.10,2013-09-22 05:13:00,
2013-09-22 01:28:00,59.6,59.0,29.65,SW,222,0.0,2.0,97,0.07,,,0.71,weatherlink.com 1.10,2013-09-22 05:28:00,
2013-09-22 01:43:00,59.4,59.0,29.66,WNW,298,0.0,2.0,97,0.04,,,0.71,weatherlink.com 1.10,2013-09-22 05:43:00,
2013-09-22 01:58:00,59.3,59.0,29.65,NNW,342,0.0,2.0,97,0.01,,,0.71,weatherlink.com 1.10,2013-09-22 05:58:00,
2013-09-22 02:13:00,59.2,58.0,29.65,North,10,0.0,1.0,97,0.00,,,0.71,weatherlink.com 1.10,2013-09-22 06:13:00,
2013-09-22 02:28:00,59.2,58.0,29.65,West,263,0.0,2.0,97,0.00,,,0.71,weatherlink.com 1.10,2013-09-22 06:28:00,
2013-09-22 02:43:00,59.1,58.0,29.65,West,263,0.0,1.0,97,0.00,,,0.71,weatherlink.com 1.10,2013-09-22 06:43:00,
2013-09-22 02:58:00,59.1,58.0,29.65,West,263,0.0,1.0,97,0.00,,,0.71,weatherlink.com 1.10,2013-09-22 06:58:00,
2013-09-22 03:13:00,59.0,58.0,29.65,West,263,0.0,0.0,97,0.00,,,0.71,weatherlink.com 1.10,2013-09-22 07:13:00,
2013-09-22 03:28:00,59.0,58.0,29.65,West,263,0.0,1.0,97,0.00,,,0.71,weatherlink.com 1.10,2013-09-22 07:28:00,
2013-09-22 03:43:00,59.0,59.0,29.65,West,271,1.0,2.0,98,0.00,,,0.71,weatherlink.com 1.10,2013-09-22 07:43:00,
2013-09-22 03:58:00,58.9,58.0,29.66,WSW,244,0.0,3.0,98,0.00,,,0.71,weatherlink.com 1.10,2013-09-22 07:58:00,
2013-09-22 04:14:00,58.9,58.0,29.66,WSW,244,0.0,2.0,97,0.00,,,0.71,weatherlink.com 1.10,2013-09-22 08:14:00,
2013-09-22 04:28:00,58.7,58.0,29.67,WSW,250,0.0,1.0,97,0.00,,,0.71,weatherlink.com 1.10,2013-09-22 08:28:00,
2013-09-22 04:43:00,58.6,58.0,29.67,WSW,250,0.0,0.0,98,0.00,,,0.71,weatherlink.com 1.10,2013-09-22 08:43:00,
2013-09-22 04:58:00,58.4,58.0,29.68,WSW,250,0.0,0.0,98,0.00,,,0.71,weatherlink.com 1.10,2013-09-22 08:58:00,
2013-09-22 05:13:00,58.2,57.0,29.68,WSW,250,0.0,1.0,97,0.00,,,0.71,weatherlink.com 1.10,2013-09-22 09:13:00,
2013-09-22 05:28:00,58.1,58.0,29.69,WSW,250,0.0,0.0,98,0.00,,,0.71,weatherlink.com 1.10,2013-09-22 09:28:00,
2013-09-22 05:43:00,57.6,57.0,29.70,NNE,32,0.0,1.0,97,0.00,,,0.71,weatherlink.com 1.10,2013-09-22 09:43:00,
2013-09-22 05:58:00,57.0,56.0,29.70,NNE,32,0.0,0.0,97,0.00,,,0.71,weatherlink.com 1.10,2013-09-22 09:58:00,
2013-09-22 06:13:00,56.4,56.0,29.70,NNE,32,0.0,1.0,97,0.00,,,0.71,weatherlink.com 1.10,2013-09-22 10:13:00,
2013-09-22 06:28:00,55.6,55.0,29.71,NNE,22,0.0,4.0,97,0.00,,,0.00,weatherlink.com 1.10,2013-09-22 10:28:00,
2013-09-22 06:44:00,54.7,54.0,29.72,NNE,19,0.0,4.0,96,0.00,,,0.00,weatherlink.com 1.10,2013-09-22 10:44:00,
2013-09-22 06:59:00,54.1,53.0,29.73,NE,43,0.0,6.0,96,0.00,,,0.00,weatherlink.com 1.10,2013-09-22 10:59:00,
2013-09-22 07:14:00,53.7,52.0,29.73,NE,43,0.0,0.0,95,0.00,,,0.00,weatherlink.com 1.10,2013-09-22 11:14:00,
2013-09-22 07:29:00,53.6,53.0,29.74,NE,43,0.0,0.0,96,0.00,,,0.00,weatherlink.com 1.10,2013-09-22 11:29:00,
2013-09-22 07:44:00,53.7,53.0,29.74,NE,43,0.0,0.0,96,0.00,,,0.00,weatherlink.com 1.10,2013-09-22 11:44:00,
2013-09-22 07:59:00,54.3,54.0,29.75,NE,43,0.0,0.0,97,0.00,,,0.00,weatherlink.com 1.10,2013-09-22 11:59:00,
2013-09-22 08:14:00,54.7,54.0,29.75,NE,43,0.0,0.0,96,0.00,,,0.00,weatherlink.com 1.10,2013-09-22 12:14:00,
2013-09-22 08:29:00,55.2,54.0,29.75,NW,323,0.0,3.0,96,0.00,,,0.00,weatherlink.com 1.10,2013-09-22 12:29:00,
2013-09-22 08:44:00,55.6,53.0,29.76,West,281,1.0,4.0,92,0.00,,,0.00,weatherlink.com 1.10,2013-09-22 12:44:00,
2013-09-22 08:59:00,56.2,52.0,29.76,North,355,1.0,7.0,86,0.00,,,0.00,weatherlink.com 1.10,2013-09-22 12:59:00,
2013-09-22 09:14:00,56.6,52.0,29.77,North,355,4.0,8.0,83,0.01,,,0.01,weatherlink.com 1.10,2013-09-22 13:14:00,
2013-09-22 09:29:00,57.5,52.0,29.77,WNW,292,5.0,9.0,83,0.01,,,0.01,weatherlink.com 1.10,2013-09-22 13:29:00,
2013-09-22 09:44:00,58.3,52.0,29.77,NE,53,2.0,9.0,80,0.01,,,0.01,weatherlink.com 1.10,2013-09-22 13:44:00,
2013-09-22 09:59:00,59.1,53.0,29.77,West,273,3.0,12.0,80,0.01,,,0.01,weatherlink.com 1.10,2013-09-22 13:59:00,
2013-09-22 10:14:00,59.9,52.0,29.77,North,11,3.0,11.0,75,0.00,,,0.01,weatherlink.com 1.10,2013-09-22 14:14:00,
2013-09-22 10:29:00,61.0,52.0,29.77,North,10,3.0,10.0,71,0.00,,,0.01,weatherlink.com 1.10,2013-09-22 14:29:00,
2013-09-22 10:44:00,61.1,51.0,29.77,NNE,25,2.0,8.0,70,0.00,,,0.01,weatherlink.com 1.10,2013-09-22 14:44:00,
2013-09-22 10:59:00,62.5,52.0,29.77,NNW,346,5.0,8.0,69,0.00,,,0.01,weatherlink.com 1.10,2013-09-22 14:59:00,
2013-09-22 11:14:00,63.0,50.0,29.77,WNW,288,7.0,15.0,62,0.00,,,0.01,weatherlink.com 1.10,2013-09-22 15:14:00,
2013-09-22 11:29:00,64.1,50.0,29.77,North,5,7.0,10.0,61,0.00,,,0.01,weatherlink.com 1.10,2013-09-22 15:29:00,
2013-09-22 11:44:00,64.0,49.0,29.77,NNW,337,8.0,10.0,58,0.00,,,0.01,weatherlink.com 1.10,2013-09-22 15:44:00,
2013-09-22 11:59:00,63.0,49.0,29.77,NW,313,3.0,12.0,60,0.00,,,0.01,weatherlink.com 1.10,2013-09-22 15:59:00,
2013-09-22 12:14:00,64.1,48.0,29.77,NE,34,6.0,10.0,57,0.00,,,0.01,weatherlink.com 1.10,2013-09-22 16:14:00,
2013-09-22 12:29:00,64.0,49.0,29.77,WSW,246,3.0,10.0,58,0.00,,,0.01,weatherlink.com 1.10,2013-09-22 16:29:00,
2013-09-22 12:44:00,62.6,48.0,29.77,NW,312,3.0,10.0,59,0.00,,,0.01,weatherlink.com 1.10,2013-09-22 16:44:00,
2013-09-22 12:59:00,62.8,47.0,29.77,NW,316,8.0,12.0,57,0.00,,,0.01,weatherlink.com 1.10,2013-09-22 16:59:00,
2013-09-22 13:14:00,62.7,47.0,29.77,North,355,3.0,12.0,56,0.00,,,0.01,weatherlink.com 1.10,2013-09-22 17:14:00,
2013-09-22 13:29:00,63.5,48.0,29.77,NW,310,3.0,8.0,57,0.00,,,0.01,weatherlink.com 1.10,2013-09-22 17:29:00,
2013-09-22 13:44:00,62.6,47.0,29.77,NE,37,3.0,10.0,57,0.00,,,0.01,weatherlink.com 1.10,2013-09-22 17:44:00,
2013-09-22 13:59:00,63.3,47.0,29.77,SW,225,4.0,8.0,56,0.00,,,0.01,weatherlink.com 1.10,2013-09-22 17:59:00,
2013-09-22 14:14:00,63.4,48.0,29.77,SSW,213,4.0,8.0,57,0.00,,,0.01,weatherlink.com 1.10,2013-09-22 18:14:00,
2013-09-22 14:30:00,64.1,48.0,29.77,NNW,340,2.0,8.0,56,0.00,,,0.01,weatherlink.com 1.10,2013-09-22 18:30:00,
2013-09-22 14:45:00,64.1,47.0,29.77,North,350,6.0,10.0,54,0.00,,,0.01,weatherlink.com 1.10,2013-09-22 18:45:00,
2013-09-22 15:00:00,63.4,46.0,29.77,SW,234,5.0,11.0,53,0.00,,,0.01,weatherlink.com 1.10,2013-09-22 19:00:00,
2013-09-22 15:15:00,63.8,46.0,29.77,NE,41,3.0,10.0,53,0.00,,,0.01,weatherlink.com 1.10,2013-09-22 19:15:00,
2013-09-22 15:30:00,64.1,46.0,29.77,North,351,2.0,11.0,52,0.00,,,0.01,weatherlink.com 1.10,2013-09-22 19:30:00,
2013-09-22 15:45:00,64.7,47.0,29.77,WSW,254,5.0,13.0,53,0.00,,,0.01,weatherlink.com 1.10,2013-09-22 19:45:00,
2013-09-22 16:00:00,65.0,46.0,29.77,SW,221,3.0,8.0,50,0.00,,,0.01,weatherlink.com 1.10,2013-09-22 20:00:00,
2013-09-22 16:15:00,63.9,46.0,29.77,NNW,333,1.0,13.0,53,0.00,,,0.01,weatherlink.com 1.10,2013-09-22 20:15:00,
2013-09-22 16:30:00,63.3,46.0,29.78,NNW,346,0.0,8.0,54,0.00,,,0.01,weatherlink.com 1.10,2013-09-22 20:30:00,
2013-09-22 16:45:00,62.9,46.0,29.78,NNW,328,5.0,7.0,54,0.00,,,0.01,weatherlink.com 1.10,2013-09-22 20:45:00,
2013-09-22 17:00:00,63.4,46.0,29.79,West,269,3.0,10.0,53,0.00,,,0.01,weatherlink.com 1.10,2013-09-22 21:00:00,
2013-09-22 17:15:00,62.2,46.0,29.80,ENE,65,2.0,12.0,56,0.00,,,0.01,weatherlink.com 1.10,2013-09-22 21:15:00,
2013-09-22 17:30:00,61.1,46.0,29.80,NNE,18,0.0,8.0,58,0.00,,,0.01,weatherlink.com 1.10,2013-09-22 21:30:00,
2013-09-22 17:45:00,61.2,45.0,29.80,North,351,2.0,7.0,56,0.00,,,0.01,weatherlink.com 1.10,2013-09-22 21:45:00,
2013-09-22 18:00:00,61.0,46.0,29.81,NNW,329,2.0,7.0,59,0.00,,,0.01,weatherlink.com 1.10,2013-09-22 22:00:00,
2013-09-22 18:15:00,60.1,46.0,29.81,North,5,4.0,5.0,59,0.00,,,0.01,weatherlink.com 1.10,2013-09-22 22:15:00,
2013-09-22 18:30:00,59.5,47.0,29.82,NNW,344,0.0,9.0,64,0.00,,,0.01,weatherlink.com 1.10,2013-09-22 22:30:00,
2013-09-22 18:45:00,58.9,47.0,29.82,NNW,341,1.0,4.0,64,0.00,,,0.01,weatherlink.com 1.10,2013-09-22 22:45:00,
2013-09-22 19:00:00,58.0,47.0,29.83,North,9,0.0,5.0,66,0.00,,,0.01,weatherlink.com 1.10,2013-09-22 23:00:00,
2013-09-22 19:15:00,57.6,47.0,29.83,NW,319,0.0,5.0,67,0.00,,,0.01,weatherlink.com 1.10,2013-09-22 23:15:00,
2013-09-22 19:30:00,57.3,46.0,29.84,North,355,0.0,8.0,67,0.00,,,0.01,weatherlink.com 1.10,2013-09-22 23:30:00,
2013-09-22 19:45:00,56.8,46.0,29.84,WNW,296,2.0,7.0,67,0.00,,,0.01,weatherlink.com 1.10,2013-09-22 23:45:00,
2013-09-22 20:00:00,56.1,45.0,29.85,NW,315,0.0,8.0,67,0.00,,,0.01,weatherlink.com 1.10,2013-09-23 00:00:00,
2013-09-22 20:15:00,55.6,45.0,29.86,West,281,0.0,3.0,68,0.00,,,0.01,weatherlink.com 1.10,2013-09-23 00:15:00,
2013-09-22 20:30:00,55.1,45.0,29.87,North,11,0.0,1.0,70,0.00,,,0.01,weatherlink.com 1.10,2013-09-23 00:30:00,
2013-09-22 20:45:00,54.7,46.0,29.87,NE,34,0.0,3.0,73,0.00,,,0.01,weatherlink.com 1.10,2013-09-23 00:45:00,
2013-09-22 21:00:00,54.5,46.0,29.87,North,355,0.0,5.0,73,0.00,,,0.01,weatherlink.com 1.10,2013-09-23 01:00:00,
2013-09-22 21:15:00,54.6,46.0,29.88,NNW,331,0.0,7.0,73,0.00,,,0.01,weatherlink.com 1.10,2013-09-23 01:15:00,
2013-09-22 21:30:00,54.6,46.0,29.89,North,355,1.0,3.0,73,0.00,,,0.01,weatherlink.com 1.10,2013-09-23 01:30:00,
2013-09-22 21:45:00,54.2,45.0,29.89,NW,313,4.0,10.0,71,0.00,,,0.01,weatherlink.com 1.10,2013-09-23 01:45:00,
2013-09-22 22:00:00,53.8,44.0,29.90,WNW,295,1.0,7.0,70,0.00,,,0.01,weatherlink.com 1.10,2013-09-23 02:00:00,
2013-09-22 22:15:00,53.4,44.0,29.90,WSW,257,0.0,4.0,70,0.00,,,0.01,weatherlink.com 1.10,2013-09-23 02:15:00,
2013-09-22 22:30:00,53.1,44.0,29.91,ESE,123,8.0,8.0,71,0.00,,,0.01,weatherlink.com 1.10,2013-09-23 02:30:00,
2013-09-22 22:45:00,53.1,43.0,29.91,WNW,290,5.0,5.0,69,0.00,,,0.01,weatherlink.com 1.10,2013-09-23 02:45:00,
2013-09-22 23:00:00,53.2,43.0,29.91,NNE,24,1.0,11.0,69,0.00,,,0.01,weatherlink.com 1.10,2013-09-23 03:00:00,
2013-09-22 23:15:00,52.8,42.0,29.91,NNW,346,3.0,12.0,67,0.00,,,0.01,weatherlink.com 1.10,2013-09-23 03:15:00,
2013-09-22 23:30:00,52.8,42.0,29.91,West,275,1.0,5.0,68,0.00,,,0.01,weatherlink.com 1.10,2013-09-23 03:30:00,
2013-09-22 23:45:00,52.7,42.0,29.92,NNE,25,2.0,9.0,67,0.00,,,0.01,weatherlink.com 1.10,2013-09-23 03:45:00,